COSMOS 1823 DEB, 39818

Orbit data source: Space-Track

COSMOS 1823 DEB, 39818 is space debris in LEO originally from a launch on Fri, 20 Feb 1987 UTC launched from the Plesetsk Missile And Space Complex (PKMTR). Debris objects in space refer to the collection of defunct objects orbiting the Earth. Examples of debris include non-operational satellites, rocket bodies, and fragments generated from explosions, collisions, or faulty payload assembly.

Loading next visibility...
Identifier
39818, 1987-020ES
Orbit
LEO
Country
Flag of CISCIS
Related business
Manufacturer
Unknown
Mission
Spacecraft
Bus & Motor
Unknown
Mass
Unknown
Launch date (UTC)
1987-02-20 (39 years ago)
Launch vehicle
Unknown
Launch site
Plesetsk Missile And Space Complex (PKMTR)
Object type
Payload
Rocket body
Debris
Shape & HBR
Unknown shape, 0.1 m
Radar Cross Section
Small (<0.1 m²)

Expand to show TLE details & history
Last TLE update: 4 days ago

TLE from 4 days ago
0 COSMOS 1823 DEB
1 39818U 87020ES  26169.50642012  .00000220  00000-0  15272-2 0  9993
2 39818  73.6149 247.4700 0037749  30.2528 330.0690 12.51578826533440
Epoch: 2026-06-18T12:09Z
TLE epoch observation values (Epoch: 2026-06-18T12:09:14.698Z)
Latitude
-0.00002°
Longitude
158.40998°
Altitude
1,434.648 km
Speed
7.156 km/s
True Right ascension
16h 29m 52s
True Declination
0° 00' 00"
Sunlit
Object was in full shadow at epoch
Visualization orbit readout
Latitude
Unknown
Longitude
Unknown
Altitude
Unknown
Speed
Unknown
Apparent Right ascension
Unknown
Apparent Declination
Unknown
Sunlit
N/A
Visualization observer readout
Local Sidereal Time
01:45:29
Azimuth
Unknown
Elevation
Unknown
Doppler factor
Unknown
Orbital elements
Apogee altitude
1,485.336 km
Perigee altitude
1,426.192 km
Semi-major axis
7,833.901 km
Eccentricity
0.00377
Inclination
73.6149°
RAAN
247.47°
Arg. of periapsis
30.2528°
True anomaly
329.85228°
Mean anomaly
330.069°
Eccentric anomaly
329.96073°
Mean motion
3.13023 °/min
Orbital period
115.01 mins
BSTAR
0.0015272
Loading maneuver chart data...
Computing Atmospheric mass density...

Documentation

Showing up to 5 results
|